Hourly Data Report for October 08, 2014

All times are specified in Local Standard Time (LST). Add 1 hour to adjust for Daylight Saving Time where and when it is observed.

BAKER LAKE A
NUNAVUT

64°17'56.000" N
96°04'40.000" W
18.60 m
2300503
71926
YBK

Download Data

Hourly Data (October 2014)
Hourly Data Report for October 8, 2014
Temp Definition
°C
Dew Point Temp Definition
°C
Rel Hum Definition
%
Wind Dir Definition
10's deg

Wind Spd Definition
km/h
Visibility Definition
km
Stn Press Definition
kPa
Hmdx Definition


Wind Chill Definition


Weather Definition


TIME
00:00 Legend Double Dagger 1.2 0.8 97 34 13 24.1 101.86     Cloudy
01:00 Legend Double Dagger 1.0 0.6 97 34 15 24.1 101.89     LegendNANA
02:00 Legend Double Dagger 0.7 0.4 98 35 15 24.1 101.90     LegendNANA
03:00 Legend Double Dagger 0.4 0.0 97 34 18 24.1 101.90     Cloudy
04:00 Legend Double Dagger 0.1 -0.5 96 33 13 24.1 101.91     LegendNANA
05:00 Legend Double Dagger 0.3 0.0 98 34 15 24.1 101.94     LegendNANA
06:00 Legend Double Dagger 0.7 0.1 96 33 12 24.1 101.98     Mostly Cloudy
07:00 Legend Double Dagger 0.5 -0.2 95 32 14 32.2 101.96     LegendNANA
08:00 Legend Double Dagger 0.7 0.0 95 34 13 32.2 101.99     LegendNANA
09:00 Legend Double Dagger 1.2 0.1 92 36 15 32.2 102.02     Mostly Cloudy
10:00 Legend Double Dagger 1.5 0.5 93 1 12 32.2 102.05     LegendNANA
11:00 Legend Double Dagger 1.3 0.3 93 3 13 24.1 102.06     LegendNANA
12:00 Legend Double Dagger 1.8 0.0 88 5 13 32.2 102.07     Cloudy
13:00 Legend Double Dagger 1.9 -0.2 86 3 16 24.1 102.09     LegendNANA
14:00 Legend Double Dagger 2.2 -0.4 83 4 12 24.1 102.09     LegendNANA
15:00 Legend Double Dagger 2.1 -0.5 83 4 18 24.1 102.11     Cloudy
16:00 Legend Double Dagger 2.0 0.1 87 1 12 24.1 102.13     LegendNANA
17:00 Legend Double Dagger 1.6 -0.5 86 32 5 32.2 102.16     LegendNANA
18:00 Legend Double Dagger 1.1 -0.5 89 1 11 24.1 102.19     Mostly Cloudy
19:00 Legend Double Dagger 1.1 -1.3 84 3 11 24.1 102.22     LegendNANA
20:00 Legend Double Dagger 0.6 -1.2 88 36 3 24.1 102.25     LegendNANA
21:00 Legend Double Dagger 0.5 -1.6 86 36 3 24.1 102.28     Cloudy
22:00 Legend Double Dagger 0.2 -2.4 83 6 8 24.1 102.29     LegendNANA
23:00 Legend Double Dagger -0.3 -2.7 84 9 12 24.1 102.30   -4 LegendNANA

Notes on Data Quality.

Legend

  • E = Estimated
  • M = Missing
  • NA = Not Available
  • ‡ = Partner data that is not subject to review by the National Climate Archives
Date modified: